GW0217 Weather Reports


time (UTC)temp
F
wind
direction
speed
knots
gust
knots
rain 1hr
in
rain 24hr
in
rain mn
in
humidity
%
barometer
mb
20260504214529 78 340 2.6 4.3 0.00 0.00 0.00 20 1006.8
20260504213530 77 328 2.6 4.3 0.00 0.00 0.00 20 1006.5
20260504212521 75 300 3.5 7.0 0.00 0.00 0.00 20 1006.2
20260504210522 72 1 1.7 4.3 0.00 0.00 0.00 22 1005.9
20260504205523 72 302 6.1 6.1 0.00 0.00 0.00 20 1006.1
20260504204524 75 327 3.5 12.2 0.00 0.00 0.00 20 1006.9
20260504203525 73 262 2.6 4.3 0.00 0.00 0.00 22 1006.7
20260504202536 72 57 2.6 3.5 0.00 0.00 0.00 22 1006.9
20260504201526 72 324 3.5 8.7 0.00 0.00 0.00 21 1007.0
20260504200537 73 36 1.7 5.2 0.00 0.00 0.00 23 1007.5
20260504195525 72 13 1.7 2.6 0.00 0.00 0.00 23 1007.2
20260504194527 71 0 3.5 4.3 0.00 0.00 0.00 23 1007.4
20260504193529 70 5 4.3 5.2 0.00 0.00 0.00 24 1007.3
20260504192532 70 36 2.6 7.0 0.00 0.00 0.00 24 1007.7
20260504191522 69 26 2.6 7.8 0.00 0.00 0.00 24 1007.9
20260504190523 69 53 3.5 4.3 0.00 0.00 0.00 24 1008.1
20260504185524 68 348 4.3 6.1 0.00 0.00 0.00 24 1007.7
20260504184527 67 335 4.3 7.8 0.00 0.00 0.00 26 1008.0
20260504183618 68 330 2.6 7.8 0.00 0.00 0.00 26 1008.2
20260504182529 67 135 2.6 4.3 0.00 0.00 0.00 29 1008.4
20260504181531 65 71 2.6 5.2 0.00 0.00 0.00 27 1008.4
20260504180532 64 9 3.5 4.3 0.00 0.00 0.00 27 1008.5
20260504175521 64 5 3.5 6.1 0.00 0.00 0.00 27 1008.5
20260504174532 63 41 1.7 5.2 0.00 0.00 0.00 31 1008.7
20260504173525 62 319 1.7 6.1 0.00 0.00 0.00 30 1008.7
20260504172526 61 307 1.7 1.7 0.00 0.00 0.00 31 1008.7
20260504171526 61 284 2.6 2.6 0.00 0.00 0.00 31 1009.0
20260504170528 60 306 2.6 5.2 0.00 0.00 0.00 32 1009.1
20260504150526 47 349 1.7 1.7 0.00 0.00 0.00 47 1008.2
20260504140611 42 49 0.9 0.9 0.00 0.00 0.00 55 1007.8
20260504130618 38 286 0.9 1.7 0.00 0.00 0.00 58 1006.9
20260504110522 40 263 0.9 0.9 0.00 0.00 0.00 53 1007.8
20260504100521 42 145 0.0 0.9 0.00 0.00 0.00 52 1007.9
20260504081521 44 0.0 0.0 0.00 0.00 0.00 47 1007.8
20260504080526 44 0.0 0.0 0.00 0.00 0.00 46 1007.8
20260504050527 53 0.0 0.0 0.00 0.00 0.00 36 1007.0
20260504045529 54 90 0.0 0.0 0.00 0.00 0.00 35 1007.4
20260504044531 55 102 0.9 0.9 0.00 0.00 0.00 31 1006.7
20260504043528 56 297 1.7 1.7 0.00 0.00 0.00 29 1006.7
20260504042539 56 315 1.7 1.7 0.00 0.00 0.00 29 1006.4
20260504041530 57 306 1.7 2.6 0.00 0.00 0.00 28 1005.9
20260504040522 58 315 0.9 1.7 0.00 0.00 0.00 28 1006.3
20260504035550 58 297 0.9 1.7 0.00 0.00 0.00 27 1006.3
20260504034526 59 293 1.7 1.7 0.00 0.00 0.00 26 1005.4
20260504033523 60 311 2.6 3.5 0.00 0.00 0.00 26 1005.7
20260504032615 60 306 4.3 4.3 0.00 0.00 0.00 25 1005.7
20260504031535 61 340 3.5 5.2 0.00 0.00 0.00 25 1005.2
20260504030526 62 306 4.3 4.3 0.00 0.00 0.00 24 1005.0
20260504025528 62 324 3.5 7.8 0.00 0.00 0.00 24 1004.9
20260504024607 63 276 2.6 3.5 0.00 0.00 0.00 24 1005.1
20260504023546 63 301 3.5 4.3 0.00 0.00 0.00 23 1005.3
20260504022744 64 328 3.5 4.3 0.00 0.00 0.00 23 1006.1
20260504021529 65 320 3.5 4.3 0.00 0.00 0.00 23 1006.2
20260504020520 65 306 4.3 5.2 0.00 0.00 0.00 22 1006.6
20260504015548 66 316 4.3 7.0 0.00 0.00 0.00 22 1006.7
20260504013524 66 307 7.0 10.4 0.00 0.00 0.00 20 1006.9
20260504012525 67 298 5.2 10.4 0.00 0.00 0.00 21 1007.0
20260504011526 68 315 5.2 9.6 0.00 0.00 0.00 21 1007.4
20260504010528 69 302 6.1 9.6 0.00 0.00 0.00 19 1007.3
20260504005603 69 301 7.0 10.4 0.00 0.00 0.00 19 1007.3
20260504004520 71 301 6.1 11.3 0.00 0.00 0.00 18 1007.8
20260504003521 72 278 5.2 6.1 0.00 0.00 0.00 18 1008.0
20260504002523 72 292 4.3 7.8 0.00 0.00 0.00 18 1008.0
20260504001550 70 297 5.2 7.0 0.00 0.00 0.00 18 1007.7
20260504000526 72 314 6.1 8.7 0.00 0.00 0.00 18 1008.3
20260503235527 74 310 4.3 10.4 0.00 0.00 0.00 18 1008.8
20260503234531 73 306 3.5 5.2 0.00 0.00 0.00 21 1008.9
20260503233556 72 283 4.3 6.1 0.00 0.00 0.00 19 1008.8
20260503231524 74 310 5.2 9.6 0.00 0.00 0.00 17 1009.5
20260503225528 73 339 5.2 7.8 0.00 0.00 0.00 17 1009.7
20260503224603 74 336 4.3 5.2 0.00 0.00 0.00 17 1010.2
20260503223529 74 293 5.2 7.0 0.00 0.00 0.00 17 1010.1
20260503222524 74 306 5.2 7.8 0.00 0.00 0.00 17 1010.5
20260503221536 73 304 5.2 6.1 0.00 0.00 0.00 17 1010.4
20260503220526 74 280 4.3 11.3 0.00 0.00 0.00 17 1010.8
20260503215528 73 328 2.6 6.1 0.00 0.00 0.00 17 1010.9